THOR AGENA D R/B, 815

Orbit data source: Space-Track

THOR AGENA D R/B, 815 is space debris in SSO originally from a launch on Thu, 18 Jun 1964 UTC launched from the Air Force Western Test Range (AFWTR). Debris objects in space refer to the collection of defunct objects orbiting the Earth. Examples of debris include non-operational satellites, rocket bodies, and fragments generated from explosions, collisions, or faulty payload assembly.

Loading next visibility...
Identifier
815, 1964-031C
Orbit
SSO
Country
Flag of USUS
Related business
Manufacturer
LMSC
Mission
Spacecraft
Bus & Motor
AGENA D, Unknown motor
Mass
600 kg wet, 600 kg dry
Launch date (UTC)
1964-06-18 (62 years ago)
Launch vehicle
Unknown
Launch site
Air Force Western Test Range (AFWTR)
Object type
Payload
Rocket body
Debris
Shape & HBR
Unknown
Radar Cross Section
Large (>1 m²)

Expand to show TLE details & history
Last TLE update: 15 hours ago

TLE from 15 hours ago
0 THOR AGENA D R/B
1 00815U 64031C   26105.85109616  .00000059  00000-0  45151-4 0  9992
2 00815  99.8176  48.4301 0012331 112.1992 248.0495 14.28482855212106
Epoch: 2026-04-15T20:25Z
TLE epoch observation values (Epoch: 2026-04-15T20:25:34.708Z)
Latitude
-0°
Longitude
-101.97158°
Altitude
803.012 km
Speed
7.45 km/s
True Right ascension
03h 13m 43s
True Declination
0° 00' 00"
Sunlit
Object was in daylight at epoch
Visualization orbit readout
Latitude
Unknown
Longitude
Unknown
Altitude
Unknown
Speed
Unknown
Apparent Right ascension
Unknown
Apparent Declination
Unknown
Sunlit
N/A
Visualization observer readout
Local Sidereal Time
18:01:44
Azimuth
Unknown
Elevation
Unknown
Doppler factor
Unknown
Orbital elements
Apogee altitude
802.854 km
Perigee altitude
785.166 km
Semi-major axis
7,172.147 km
Eccentricity
0.00123
Inclination
99.8176°
RAAN
48.4301°
Arg. of periapsis
112.1992°
True anomaly
247.91852°
Mean anomaly
248.0495°
Eccentric anomaly
247.984°
Mean motion
3.5733 °/min
Orbital period
100.75 mins
BSTAR
0.000045151
Loading maneuver chart data...
Computing Atmospheric mass density...
Loading historical data...
Loading historical data...
Loading historical data...
Loading historical data...
Loading historical data...
Loading historical data...
Loading historical data...
Other satellites on launch #31 in the year 1964 (1964-06-18 UTC)

Documentation

Showing up to 5 results
|